Home > Weather > Merida > Past weeks

Flag for Mexico Past Weather in Merida, Yucatán, Mexico — Yesterday and Last 2 Weeks

Now
91 °F

Partly sunny.


Feels Like: 103 °F
Forecast: 78 / 91 °F
Wind: No wind

Location: Aerop. Internacional Merida - Yuc

Current Time: Aug 26, 2016 at 1:45:06 PM

Latest Report: Aug 26, 2016 at 12:45 PM


Visibility: 7 mi

Pressure: 29.90 "Hg

Humidity: 59%

Dew Point: 75 °F

Location of MeridaLocation

Past Weather in Merida — Graph

°F

Merida Temperature Yesterday

Maximum temperature yesterday: 95 °F (at 12:48 PM)
Minimum temperature yesterday: 75 °F (at 6:48 AM)
Average temperature yesterday: 83 °F

High & Low Weather Summary for the Past Weeks

 TemperatureHumidityPressure
High99 °F (Aug 23, 2:45 PM)94% (Aug 12, 5:44 AM)30.12 "Hg (Aug 12, 5:44 AM)
Low73 °F (Aug 14, 3:48 AM)35% (Aug 23, 2:45 PM)29.82 "Hg (Aug 13, 5:53 PM)
Average83 °F78%29.96 "Hg
* Reported Aug 11 11:45 AM — Aug 26 11:41 AM, Merida, Weather by CustomWeather, © 2016

Note: Actual official high and low records may vary slightly from our data, if they occured in-between our weather recording intervals... More about our weather records

Advertising

Merida Weather History for the Previous 24 Hours

Scroll right to see more
 ConditionsComfort  
Time TempWeatherWind HumidityBarometerVisibility
11:41 AM
Fri, Aug 26
90 °FPartly sunny.5 mph63%29.92 "Hg7 mi
9:45 AM86 °FPartly sunny.6 mph75%29.94 "Hg7 mi
7:45 AM82 °FPartly sunny.5 mph89%29.93 "Hg6 mi
5:52 AM79 °FClear.5 mph94%29.90 "Hg7 mi
4:48 AM79 °FPassing clouds.3 mph94%29.91 "Hg7 mi
3:56 AM81 °FPassing clouds.5 mph89%29.91 "Hg7 mi
2:45 AM81 °FPassing clouds.6 mph89%29.92 "Hg7 mi
1:52 AM81 °FPassing clouds.5 mph89%29.92 "Hg7 mi
12:44 AM81 °FPassing clouds.5 mph89%29.93 "Hg7 mi
11:45 PM
Thu, Aug 25
82 °FPassing clouds.5 mph84%29.95 "Hg7 mi
10:46 PM82 °FPassing clouds.5 mph84%29.96 "Hg7 mi
9:49 PM82 °FPassing clouds.6 mph84%29.95 "Hg7 mi
6:51 PM84 °FPartly sunny.5 mph79%29.90 "Hg7 mi
2:44 PM90 °FBroken clouds.7 mph71%29.90 "Hg7 mi
1:53 PM81 °FPartly sunny.8 mph94%29.92 "Hg7 mi
1:43 PM81 °FLight rain. Partly sunny.16 mph89%29.93 "Hg4 mi
Weather by CustomWeather, © 2016

See weather overviewHow to use our weather pages